{"data":{"norad_id":65805,"intl_designator":"2025-218Q","name":"STARLINK-35273","alt_names":[],"object_type":"PAYLOAD","status":"ACTIVE","operator":null,"country":"US","launch_date":"2025-09-26","launch_site_code":"AFWTR","launch_vehicle":null,"mission":null,"orbit_class":"UNKNOWN","rcs_meters":null,"size_class":null,"mass_kg":null,"dimensions":null,"purposes":["comms"],"wikipedia_slug":null,"has_3d_model":false,"image_url":null,"decayed_at":null,"tle_current":{"epoch":"2026-05-25T02:11:23.464320Z","epoch_age_seconds":74113,"freshness":"FRESH","line1":"1 65805U 25218Q   26145.09124380  .00003399  00000+0  23945-3 0  9996","line2":"2 65805  97.4534   7.8488 0002102  84.4020 275.7447 15.05658865 36460","mean_motion":15.05658865,"eccentricity":0.0002102,"inclination_deg":97.4534,"raan_deg":7.8488,"arg_perigee_deg":84.402,"mean_anomaly_deg":275.7447,"bstar":0.00023945,"rev_number":3646,"period_min":95.639193809017,"perigee_km":548.02777573778,"apogee_km":550.94014759006,"semimajor_km":6927.6209616639,"source":"CELESTRAK","updated_at":"2026-05-25T13:38:20.938947Z"}}}